カタログに戻る

CHINASAT 11

運用中通信GEO
NORAD 39157·PAYLOAD·🇨🇳 China

打ち上げ May 1, 2013 から Xichang Satellite Launch Center

Loading…

TLE

最新Source: Space-Track

元期: Sep 14, 2026, 22:49 UTC

1 39157U 13020A   26257.95094755 -.00000298  00000-0  00000-0 0  9997
2 39157   0.0472 298.5288 0001163 171.7184 323.9380  1.00272486 48798

AllMySatでCHINASAT 11をリアルタイム追跡

Download on the App Store